STARLINK-35946, 66522

Orbit data source: Space-Track

STARLINK-35946, 66522 is a payload satellite owned by SpaceX/Seattle (US) in LEO that was launched on Wed, 19 Nov 2025 UTC via an FALCON 9 launch vehicle from the Air Force Eastern Test Range (AFETR). Payload-class satellites include a variety of spacecraft equipped with specific instruments for various scientific and technological missions. These include communications satellites like Starlink; space stations such as the ISS; scientific satellites like the Hubble; Earth observation satellites from companies like Planet Labs, Umbra, and HawkEye 360; GPS; miniature CubeSats for education and research; and military/defense satellites.

Loading next visibility...
Identifier
66522, 2025-265G
Orbit
LEO
Country
Flag of USUS
Related business
Manufacturer
SpaceX/Seattle
Mission
Operational Commercial Communications
Bus & Motor
STARLINK V2MO, Unknown motor
Mass
575 kg wet, ~530 kg dry
Launch date (UTC)
2025-11-19 (7 months ago)
Launch vehicle
FALCON 9
Launch site
Air Force Eastern Test Range (AFETR)
Object type
Payload
Rocket body
Debris
Shape & HBR
Box + 2 Pan, 17.7 m
Radar Cross Section
36.964 m², Large (>1 m²)

Expand to show TLE details & history
Last TLE update: 18 hours ago

TLE from 18 hours ago
0 STARLINK-35946
1 66522U 25265G   26171.10606626  .00012338  00000-0  45733-3 0  9997
2 66522  42.9990  59.8043 0001431 271.1624  88.9064 15.27564869 32774
Epoch: 2026-06-20T02:32Z
TLE epoch observation values (Epoch: 2026-06-20T02:32:44.124Z)
Latitude
-0.00001°
Longitude
113.29498°
Altitude
482.851 km
Speed
7.626 km/s
True Right ascension
03h 59m 13s
True Declination
0° 00' 00"
Sunlit
Object was in daylight at epoch
Visualization orbit readout
Latitude
Unknown
Longitude
Unknown
Altitude
Unknown
Speed
Unknown
Apparent Right ascension
Unknown
Apparent Declination
Unknown
Sunlit
N/A
Visualization observer readout
Local Sidereal Time
07:12:15
Azimuth
Unknown
Elevation
Unknown
Doppler factor
Unknown
Orbital elements
Apogee altitude
486.022 km
Perigee altitude
484.058 km
Semi-major axis
6,863.177 km
Eccentricity
0.00014
Inclination
42.999°
RAAN
59.8043°
Arg. of periapsis
271.1624°
True anomaly
88.9228°
Mean anomaly
88.9064°
Eccentric anomaly
88.9146°
Mean motion
3.81729 °/min
Orbital period
94.31 mins
BSTAR
0.00045733
Loading maneuver chart data...
Computing Atmospheric mass density...
Loading historical data...
Loading historical data...
Loading historical data...
Loading historical data...
Loading historical data...
Loading historical data...
Loading historical data...

Documentation

Showing up to 5 results
|